Home   Weather   Anaheim   Past weeks

Flag for USA Past Weather in Anaheim, California, USA — Yesterday and Last 2 Weeks

Now
63 °F

Clear.


Feels Like: 63 °F
Forecast: 60 / 83 °F
Wind: 3 mph from South

Location: Fullerton Municipal Airport

Current Time: May 23, 2017 at 1:46:26 am

Latest Report: May 23, 2017 at 12:53 am


Visibility: 10 mi

Pressure: 29.96 "Hg

Humidity: 84%

Dew Point: 58 °F

Location of AnaheimLocation

Past Weather in Anaheim — Graph

°F

Anaheim Temperature Yesterday

Maximum temperature yesterday: 81 °F (at 2:53 pm)
Minimum temperature yesterday: 61 °F (at 3:53 am)
Average temperature yesterday: 69 °F

High & Low Weather Summary for the Past Weeks

 TemperatureHumidityPressure
High95 °F (May 20, 1:53 pm)93% (May 8, 3:53 am)30.13 "Hg (May 8, 3:53 am)
Low49 °F (May 8, 3:53 am)15% (May 20, 11:53 am)29.78 "Hg (May 20, 5:53 pm)
Average66 °F66%29.92 "Hg
* Reported May 7 11:53 pm — May 22 11:53 pm, Anaheim. Weather by CustomWeather, © 2017

Note: Actual official high and low records may vary slightly from our data, if they occured in-between our weather recording intervals... More about our weather records

Advertising

Anaheim Weather History for the Previous 24 Hours

Scroll right to see more
 ConditionsComfort  
Time TempWeatherWind HumidityBarometerVisibility
11:53 pm
Mon, May 22
64 °FClear.No wind75%29.96 "Hg10 mi
10:53 pm65 °FClear.No wind73%29.95 "Hg10 mi
9:53 pm67 °FClear.No wind68%29.93 "Hg10 mi
8:53 pm69 °FClear.3 mph63%29.92 "Hg10 mi
7:53 pm72 °FClear.5 mph59%29.90 "Hg10 mi
6:53 pm77 °FSunny.6 mph50%29.88 "Hg10 mi
5:53 pm79 °FSunny.6 mph47%29.88 "Hg10 mi
4:53 pm81 °FPassing clouds.7 mph47%29.88 "Hg10 mi
3:53 pm79 °FSunny.8 mph48%29.89 "Hg10 mi
2:53 pm81 °FScattered clouds.7 mph44%29.90 "Hg10 mi
1:53 pm80 °FSunny.5 mph47%29.92 "Hg10 mi
12:53 pm79 °FPassing clouds.10 mph48%29.93 "Hg10 mi
11:53 am79 °FPassing clouds.6 mph48%29.95 "Hg10 mi
10:53 am74 °FPassing clouds.No wind60%29.96 "Hg8 mi
9:53 am70 °FHaze.No wind68%29.97 "Hg6 mi
9:28 am67 °FHaze.No wind76%29.98 "Hg5 mi
8:53 am64 °FOvercast.3 mph81%29.97 "Hg3 mi
7:53 am63 °FFog.3 mph87%29.95 "Hg2 mi
6:59 am62 °FFog.No wind90%29.94 "Hg2 mi
5:53 am61 °FFog.No wind93%29.91 "Hg4 mi
4:53 am61 °FFog.3 mph93%29.90 "Hg4 mi
4:29 am61 °FFog.No wind93%29.91 "Hg4 mi
3:53 am61 °FFog.3 mph93%29.90 "Hg5 mi
2:53 am62 °FFog.No wind93%29.92 "Hg5 mi
1:53 am62 °FFog.No wind93%29.94 "Hg5 mi
1:10 am62 °FPassing clouds.3 mph93%29.95 "Hg7 mi
Weather by CustomWeather, © 2017

See weather overviewHow to use our weather pages